GFSWCAN_sfc_thetae_231.txt.gz
Theta_e
301 301 302 302 304 307 308 310 311 312 312 314 314 314 315 314 310 305 305 304 304 299 300 300 301 300 300 301 300 301 300 301 300 297 295 295 294 295 293 294 293 293 290 290 289 286 284 299 299 291 300 302 302 302
300 300 301 302 302 304 307 308 310 311 311 312 314 314 315 315 310 303 304 305 305 303 303 301 303 305 304 304 303 299 300 300 303 298 297 296 294 293 292 290 294 291 295 294 294 293 299 303 303 306 303 303 303 303
300 300 300 302 302 302 306 307 308 310 311 312 313 314 315 315 312 306 304 302 303 301 302 300 302 304 305 305 308 301 300 302 301 301 299 297 293 295 291 291 293 296 296 295 295 298 299 301 303 304 305 304 305 304
301 300 300 300 301 302 303 306 307 308 310 311 312 313 314 314 312 305 306 304 303 300 297 300 305 303 305 305 304 305 305 304 303 300 298 297 294 295 293 293 294 297 297 296 296 299 301 302 303 304 304 305 304 305
301 300 300 300 300 301 302 304 306 307 308 310 312 313 313 314 312 306 302 304 304 302 297 298 302 302 304 305 306 307 307 304 302 299 298 296 296 296 296 295 294 297 298 296 296 302 301 302 304 304 303 304 304 304
300 301 301 300 300 300 301 302 305 306 307 309 311 312 313 313 308 304 301 304 304 304 299 293 299 301 302 306 305 304 304 302 301 300 298 298 298 298 294 293 299 300 302 305 301 303 303 305 305 305 303 304 305 304
300 301 301 301 300 300 300 302 303 305 307 308 310 311 311 311 307 302 301 303 304 304 297 293 295 300 303 304 303 303 303 302 302 299 297 299 298 298 297 293 300 301 302 304 304 302 302 303 303 304 303 304 304 304
300 301 301 301 301 299 299 301 302 304 306 307 308 309 310 309 306 304 303 303 302 299 297 292 294 297 303 299 299 302 300 302 301 300 298 298 297 298 294 300 301 300 301 302 303 304 305 304 304 303 303 303 302 302
300 301 301 301 301 299 299 300 301 303 305 306 307 309 305 303 301 304 306 303 302 299 294 292 292 292 301 298 299 298 301 296 299 298 298 298 295 294 299 301 301 302 302 303 304 304 303 301 300 301 301 302 300 301
300 301 301 301 301 300 298 299 301 303 304 306 305 302 297 301 309 308 301 296 295 297 297 294 297 295 299 297 295 296 297 296 293 297 298 295 295 302 303 303 304 303 304 305 302 301 299 298 299 300 301 301 300 300
300 301 301 301 301 299 299 301 302 303 305 303 299 298 301 309 302 299 293 291 293 290 294 296 297 296 300 296 295 297 294 294 291 294 295 294 294 300 303 303 304 305 304 305 305 302 301 300 300 300 301 301 300 300
300 300 301 300 300 299 300 300 301 302 302 302 301 302 302 298 296 288 287 292 291 290 294 293 295 299 298 300 297 294 293 293 290 296 294 291 298 302 303 304 303 305 306 305 302 301 301 301 302 302 301 301 301 300
299 300 300 300 299 300 300 299 300 302 304 303 298 294 291 289 283 285 284 289 290 294 294 294 293 296 296 297 295 293 290 290 295 292 291 295 299 301 304 304 303 304 302 301 301 301 300 300 301 300 301 301 300 299
300 300 300 300 300 300 299 299 300 302 300 291 287 283 284 284 286 290 293 294 298 298 295 296 295 297 297 294 293 291 293 294 289 286 290 297 300 303 304 304 301 299 301 301 301 300 299 300 301 301 301 301 300 299
299 300 299 299 299 299 299 299 300 303 296 288 286 283 285 291 293 295 297 297 299 299 297 296 295 296 293 293 294 292 289 288 291 292 296 300 302 303 303 302 302 301 302 302 302 301 301 301 301 301 301 301 300 299
299 298 297 299 299 299 299 299 300 298 292 289 286 285 289 288 291 292 294 295 299 298 299 299 294 293 293 294 290 290 289 288 293 296 299 301 303 304 304 303 302 302 303 303 303 303 302 301 300 301 300 300 300 299
298 293 298 299 300 299 300 298 295 290 288 285 286 289 290 288 290 294 295 296 299 297 295 295 291 292 294 291 290 293 291 296 298 297 300 304 304 304 305 304 303 303 303 304 304 304 302 301 301 301 300 300 300 299
293 295 298 299 299 298 297 297 291 287 284 288 288 291 292 292 292 295 297 298 299 298 296 295 296 292 291 289 290 295 297 297 299 302 303 303 305 305 304 305 304 304 304 305 305 304 300 299 300 302 301 300 300 299
294 296 298 298 298 295 291 292 289 285 288 290 291 293 296 295 297 299 300 301 301 301 299 296 293 292 293 295 296 297 297 299 300 302 303 304 305 304 304 305 305 305 305 305 304 300 300 301 303 302 302 301 299 298
297 298 297 299 299 289 288 289 293 287 287 290 293 292 295 295 297 298 298 299 298 298 296 295 296 297 297 298 299 299 299 300 301 300 301 303 304 304 304 305 305 304 301 300 300 295 302 301 302 301 302 300 299 297
295 296 297 299 295 293 290 290 289 291 290 290 293 294 294 296 295 295 295 298 295 294 293 297 299 300 298 298 299 299 299 301 302 302 302 303 300 301 300 300 300 300 299 299 299 300 297 303 301 301 301 301 299 299
294 297 296 296 291 292 290 293 291 293 291 291 292 293 290 290 292 293 297 294 293 295 297 298 299 300 299 298 298 301 299 299 299 296 294 296 298 298 299 299 299 299 300 299 301 302 302 302 301 301 301 299 298 299
297 297 293 292 288 287 286 295 289 291 287 289 291 287 287 290 293 297 293 294 295 299 300 301 301 303 303 303 303 301 301 302 300 300 299 299 300 300 299 299 299 299 299 302 305 304 302 296 297 300 299 298 298 297
297 292 287 285 286 283 290 286 290 290 291 288 287 286 288 291 295 292 290 292 295 298 298 300 301 299 301 302 302 302 302 303 301 300 300 299 299 299 299 300 300 300 302 305 305 303 302 301 296 300 300 298 299 298
285 286 286 283 287 285 284 284 285 287 285 287 285 287 289 294 289 288 288 292 293 294 296 299 300 300 300 301 301 302 301 303 301 299 300 299 300 299 300 301 301 304 305 304 302 302 301 301 300 301 298 299 297 296
282 287 285 284 284 285 284 282 283 284 285 286 287 291 293 289 286 286 290 293 295 295 296 298 299 298 299 302 302 300 301 301 300 298 301 300 300 300 301 300 301 304 307 306 304 301 300 298 299 298 298 296 290 296
281 284 288 291 290 289 288 289 290 288 285 286 288 288 288 284 284 290 294 295 295 297 298 298 298 299 301 302 301 300 301 299 299 300 302 303 301 302 304 303 302 306 308 306 304 301 299 299 298 298 299 299 298 298
286 287 285 287 288 290 286 287 286 285 287 291 290 285 285 286 287 293 295 296 297 298 298 298 300 299 299 300 301 302 301 300 302 303 303 304 305 306 307 308 308 293 307 307 305 304 301 300 299 299 299 298 298 300
287 290 289 286 288 288 286 287 288 290 291 291 287 286 288 293 293 295 294 295 296 297 297 298 298 301 301 302 302 303 303 303 301 300 300 301 302 305 309 308 307 308 306 304 289 296 301 300 300 299 299 299 301 302
287 290 288 287 286 285 287 289 289 290 291 291 293 293 293 292 293 295 295 295 295 294 294 295 297 300 300 301 301 301 303 305 304 303 301 302 304 307 309 309 308 308 308 305 302 299 288 296 294 300 299 301 299 298
288 289 287 288 285 288 290 291 290 290 290 289 291 290 288 289 291 295 295 295 295 296 295 295 296 297 299 300 300 300 300 302 304 306 306 308 307 309 310 309 311 310 309 305 302 300 299 299 300 300 300 299 297 296
287 285 286 283 286 290 291 289 288 287 288 288 287 290 290 289 288 292 296 296 296 295 292 294 296 295 297 298 299 300 290 302 304 306 306 307 307 309 310 310 310 309 305 304 303 301 301 301 300 300 301 298 298 297
286 287 287 286 286 285 289 288 285 286 286 286 286 288 289 286 285 292 297 297 297 297 297 298 298 299 298 297 299 300 294 304 299 288 287 289 293 299 308 309 308 308 305 304 304 303 302 302 302 302 302 300 299 298

GFSWCAN_sfc_thetae_234.txt.gz
Theta_e
301 301 301 301 303 303 304 307 308 310 311 312 314 315 314 315 312 312 317 316 310 308 310 307 306 306 308 307 304 309 306 306 306 301 300 300 298 300 298 300 298 298 296 295 296 291 289 304 302 295 302 307 306 306
301 300 301 301 301 302 303 304 307 308 310 311 313 314 315 315 312 308 313 315 316 308 310 311 311 311 309 309 310 310 308 307 311 305 305 306 299 301 299 295 302 296 299 300 299 299 306 307 306 308 309 308 307 306
300 300 301 301 301 301 302 302 306 307 308 310 312 313 315 315 313 310 314 316 311 308 309 309 309 314 314 313 315 307 309 311 311 312 309 305 298 303 297 296 298 300 303 298 298 302 304 306 308 309 309 308 308 308
302 302 302 301 301 301 301 302 303 305 307 308 310 312 313 314 314 310 310 317 311 309 303 308 311 309 312 313 312 313 312 314 314 309 305 302 299 303 300 300 298 302 303 300 301 303 304 305 306 307 307 308 308 307
301 301 302 301 300 301 301 301 302 304 306 307 309 311 313 313 313 312 311 313 315 308 303 306 311 311 310 311 310 311 312 311 307 304 302 300 305 301 303 301 298 303 301 299 300 303 304 303 307 308 307 307 307 305
301 301 301 301 302 301 301 301 301 303 305 306 309 310 311 312 312 306 303 313 317 312 305 302 307 306 308 310 309 310 311 309 307 304 303 306 306 304 298 297 304 306 307 309 305 308 307 308 310 310 308 307 306 305
300 301 301 301 302 302 301 300 300 302 303 306 307 308 309 310 309 304 303 306 310 313 300 300 303 305 309 310 309 308 311 309 307 306 303 304 304 302 300 297 303 307 307 309 310 309 306 308 306 308 308 306 307 306
300 300 301 301 302 302 301 300 300 302 302 305 306 307 308 309 308 305 305 304 308 306 301 296 299 300 308 303 302 309 305 306 306 305 306 302 304 302 297 304 306 307 307 307 308 310 309 310 309 307 306 306 304 303
300 301 300 301 302 302 301 300 300 300 302 304 306 307 306 305 302 305 305 305 306 303 295 297 297 296 306 304 306 304 307 301 307 300 301 303 300 297 302 305 306 306 306 306 308 308 309 307 305 304 305 304 302 303
300 300 300 301 302 302 301 299 299 300 302 304 304 303 298 303 308 306 301 296 298 299 298 297 304 299 302 302 301 302 304 301 297 300 305 299 298 307 309 309 309 308 309 309 306 305 305 304 303 303 302 302 304 304
300 300 300 301 302 301 301 299 300 301 302 304 299 299 303 309 303 300 293 290 291 290 295 298 303 300 304 298 299 304 300 301 294 299 298 299 299 305 309 309 310 310 310 310 310 309 307 306 303 301 302 303 304 306
300 300 300 301 301 301 301 300 301 302 303 304 304 304 303 299 295 288 288 292 290 292 299 299 302 303 302 306 301 301 298 299 294 302 297 295 302 308 308 308 310 311 310 310 310 306 305 304 303 303 304 304 306 307
300 300 300 300 301 301 300 301 300 300 301 303 300 295 292 290 284 284 285 289 291 297 300 301 298 302 300 302 301 299 295 295 301 295 294 298 307 307 308 308 309 310 310 308 306 306 304 303 303 304 305 305 306 306
299 300 300 300 301 300 300 300 299 299 297 294 289 285 286 285 288 291 294 296 300 304 301 300 298 299 301 297 298 293 298 298 292 291 292 301 306 308 309 308 308 307 307 306 306 305 303 302 303 305 306 306 306 306
299 300 300 300 300 300 300 300 299 301 296 288 289 285 287 296 295 297 299 300 305 305 301 300 299 300 297 295 297 297 292 292 294 295 301 305 308 309 308 308 307 307 307 306 306 305 304 303 304 304 306 307 307 306
299 299 299 300 300 300 300 300 300 299 294 290 286 288 292 291 294 296 297 297 304 302 304 302 295 293 292 296 295 294 293 291 295 301 305 309 310 310 310 309 309 308 308 307 307 306 305 304 304 305 306 306 306 306
298 296 299 300 300 300 300 299 296 291 289 286 289 295 294 294 295 298 297 298 303 301 296 297 292 292 298 295 294 299 296 298 302 304 307 310 311 311 311 309 308 308 308 309 308 307 306 307 306 305 305 307 307 307
295 296 298 299 300 298 298 295 293 289 285 289 289 293 295 298 295 296 298 300 299 299 300 295 299 294 294 294 296 299 301 304 306 307 309 311 312 312 310 309 309 309 309 309 309 308 308 306 305 304 307 308 307 307
297 299 298 300 298 296 292 293 295 287 288 291 293 297 295 297 300 302 299 300 300 303 300 298 295 294 297 302 301 301 304 305 305 307 310 312 312 310 310 310 309 309 309 308 308 308 306 306 306 308 309 308 306 305
297 298 299 299 298 292 289 291 294 289 287 291 294 294 296 298 302 302 299 299 298 297 294 294 298 301 302 303 305 305 306 308 307 305 306 308 309 310 309 308 307 308 308 306 305 295 305 306 308 309 308 306 304 303
297 298 297 298 295 291 289 291 291 291 290 290 295 296 297 300 297 296 294 299 296 294 293 300 302 302 302 304 307 307 307 308 307 306 305 305 307 306 307 306 307 306 304 303 303 302 297 303 308 310 309 307 305 303
297 297 296 296 290 291 289 295 292 295 290 291 294 294 292 293 294 294 296 291 291 294 300 301 302 301 300 302 305 308 309 308 308 305 301 302 304 304 304 304 303 302 303 303 304 303 305 309 310 309 308 305 300 302
297 297 294 292 288 288 288 298 291 293 289 289 290 288 289 291 295 298 293 295 295 299 301 302 302 305 302 304 304 305 306 306 304 304 304 305 305 305 305 304 304 303 302 304 308 308 309 298 302 306 305 305 303 300
297 292 290 288 289 286 292 288 292 292 293 290 289 288 289 291 296 294 291 293 298 301 300 301 303 303 303 303 302 304 305 307 306 306 306 304 303 303 304 305 305 304 304 307 309 310 309 307 299 305 305 304 301 299
286 286 288 284 289 286 285 285 286 289 286 288 286 287 291 296 291 290 290 294 297 298 300 302 302 302 301 303 305 306 307 307 305 304 304 305 305 305 303 303 304 306 309 307 307 307 307 307 306 306 305 302 298 297
283 287 285 286 287 286 286 284 285 286 287 286 288 293 296 293 288 287 292 298 299 300 300 300 300 300 301 305 305 306 306 307 307 305 305 305 304 303 302 301 301 304 310 310 309 306 305 305 304 302 301 297 291 296
283 286 290 293 292 291 290 293 292 290 286 286 289 289 290 285 286 293 298 302 302 303 304 305 304 303 303 305 306 307 307 307 306 305 307 308 308 307 306 305 304 308 312 312 310 307 304 304 303 301 300 299 298 299
289 290 286 291 291 293 288 289 288 286 289 292 293 288 287 289 290 296 298 302 303 304 306 306 306 306 307 307 307 306 306 306 306 307 307 307 308 309 310 310 311 294 310 311 308 307 306 305 303 302 299 298 299 300
289 293 291 288 290 290 289 289 289 291 294 293 291 290 289 294 295 297 300 301 304 305 302 302 304 306 306 307 307 308 306 305 303 301 300 301 304 306 311 310 310 310 309 307 288 297 303 303 301 301 300 300 301 302
290 296 290 289 287 286 288 291 290 293 295 295 296 294 293 293 298 301 301 302 301 300 302 303 305 305 303 304 304 305 308 309 309 306 303 302 304 309 311 311 311 309 308 306 305 303 289 298 295 301 300 300 300 299
295 295 289 288 286 290 292 294 295 295 294 293 297 294 292 294 298 301 300 301 302 303 302 302 303 305 305 304 304 303 303 308 309 309 309 310 310 310 312 312 313 311 307 305 304 303 301 300 301 300 299 299 299 297
292 289 290 286 288 294 296 295 292 291 291 291 290 293 293 293 292 299 301 303 303 301 292 300 302 301 304 305 306 305 291 308 309 310 309 311 312 312 312 312 313 311 307 306 304 303 303 301 300 301 301 299 299 298
289 290 290 289 289 289 293 292 290 288 289 289 288 290 292 292 286 297 302 303 302 302 303 303 304 304 303 303 305 304 297 309 302 288 290 289 290 299 310 312 312 311 309 306 304 304 303 303 302 302 300 300 298 298

GFSWCAN_sfc_thetae_237.txt.gz
Theta_e
302 302 301 301 301 302 303 303 305 308 309 310 312 313 315 315 316 315 319 324 314 310 312 313 312 311 312 311 308 314 309 311 309 304 303 303 302 304 302 304 302 301 300 298 299 295 292 308 305 296 305 309 309 308
303 301 301 301 301 301 302 303 303 306 307 309 310 312 314 315 315 312 314 322 320 311 312 318 317 317 315 315 313 316 312 311 311 307 307 307 303 304 303 297 307 298 303 301 302 301 310 310 308 310 311 309 309 309
303 302 302 302 302 301 301 302 303 303 306 307 309 311 313 314 315 313 316 319 316 311 311 311 311 318 320 317 318 310 313 315 315 319 310 308 303 306 300 301 303 306 307 302 302 304 306 309 311 311 311 310 310 310
303 303 302 303 302 302 301 301 302 303 304 306 307 309 311 313 314 313 314 318 317 312 305 309 318 314 317 319 317 317 316 319 320 314 307 306 303 308 303 304 303 305 306 304 303 306 307 309 309 309 310 311 309 310
301 302 302 302 302 302 302 301 301 302 303 305 307 309 310 312 312 314 315 318 319 312 306 308 315 316 316 316 314 315 314 315 310 307 306 304 308 307 306 304 301 306 304 302 301 308 308 307 309 310 309 309 309 308
301 301 301 302 302 302 303 302 302 301 302 304 306 308 309 310 311 308 303 315 319 316 308 302 314 313 314 314 313 313 312 312 310 307 306 308 313 308 301 300 308 310 311 311 308 311 310 310 311 311 310 310 309 308
302 301 301 301 301 302 303 302 302 300 301 303 305 307 308 308 310 305 303 306 309 319 305 302 303 312 313 313 312 311 314 311 309 307 306 307 307 306 302 299 307 309 310 311 312 312 307 309 309 311 311 310 309 309
302 302 301 301 301 301 302 302 302 300 300 302 304 306 307 307 307 305 310 306 308 310 309 301 303 305 312 308 306 312 308 309 309 307 309 306 308 306 300 306 308 309 310 310 311 312 311 311 311 310 309 309 307 305
302 301 301 301 301 301 302 302 301 300 300 301 303 305 309 306 303 307 307 307 306 303 295 300 300 298 309 308 309 308 309 303 309 304 304 306 304 300 304 306 307 309 309 309 310 310 311 309 308 307 307 307 303 304
301 301 301 301 301 301 303 302 301 299 300 301 304 303 299 308 308 309 302 297 297 298 298 296 306 300 306 306 304 304 306 303 299 304 308 302 301 310 310 311 312 311 311 311 308 307 308 307 306 305 305 304 304 304
301 301 301 301 301 302 302 302 301 300 300 302 300 300 310 309 304 300 293 291 292 291 296 298 303 301 308 302 301 305 302 302 296 301 301 300 300 307 310 310 313 313 312 312 312 312 312 309 307 305 304 305 305 305
301 300 301 301 301 302 302 302 302 300 302 301 301 310 305 300 296 289 287 290 289 292 300 300 303 306 305 308 303 304 299 301 295 306 300 297 303 310 311 310 312 313 312 311 312 311 308 307 306 305 305 305 306 307
301 300 301 301 301 302 302 302 301 302 301 304 300 298 294 291 285 285 286 289 292 301 301 303 301 305 304 305 302 300 295 296 305 299 297 301 307 310 312 312 312 313 313 312 311 309 308 306 305 306 305 306 307 307
300 300 300 301 301 301 302 302 301 300 296 293 293 286 288 286 290 295 297 298 302 304 304 305 303 300 302 299 300 294 299 301 295 294 295 302 308 310 311 312 311 311 311 310 308 308 306 305 305 306 306 308 307 307
300 299 300 301 301 301 301 301 301 300 296 289 291 285 289 297 300 301 301 302 306 308 306 303 301 301 298 296 298 297 295 293 296 297 301 306 313 312 310 310 310 310 309 308 309 307 306 306 306 306 308 309 308 309
299 299 300 301 301 301 301 301 300 301 295 291 288 289 296 296 296 299 300 302 304 303 307 303 296 294 293 297 295 295 294 293 298 302 306 313 314 314 312 311 310 309 309 309 309 308 307 306 307 307 308 308 308 309
298 297 301 301 301 301 301 297 297 292 291 288 290 297 296 298 297 299 302 303 307 299 297 297 293 294 300 296 296 300 297 302 304 306 310 315 316 314 312 311 310 309 310 310 310 309 308 310 309 308 307 308 309 310
297 300 301 301 300 298 297 296 293 290 286 289 290 294 298 299 297 300 303 306 303 298 298 296 300 297 296 295 297 302 305 306 308 310 310 314 316 314 312 311 310 310 310 310 310 310 309 309 308 306 307 309 309 309
299 300 300 300 300 297 291 293 294 287 290 294 295 297 298 300 300 303 303 305 304 302 299 297 295 296 298 302 303 306 306 306 307 309 312 315 315 313 312 311 310 310 310 310 311 310 310 309 307 306 306 307 306 307
299 300 300 300 300 292 290 293 299 292 290 294 296 296 295 296 301 303 302 303 301 297 292 290 295 302 302 305 307 308 308 310 310 309 310 311 312 312 312 310 309 311 310 310 309 300 305 306 307 308 309 306 306 305
296 299 298 299 295 291 290 293 292 293 294 293 296 296 296 300 299 298 299 303 297 293 291 297 300 304 305 307 309 310 310 311 310 310 309 308 310 310 309 309 311 309 306 306 305 303 302 304 308 309 310 309 307 305
298 299 296 295 291 292 292 295 294 298 294 293 294 296 294 295 296 297 302 296 293 295 299 303 304 302 302 304 307 310 312 312 312 308 303 303 306 307 307 308 307 306 306 307 307 307 307 309 309 310 309 306 305 305
298 297 294 294 288 289 288 298 291 292 288 289 290 290 291 295 298 302 295 296 294 299 302 304 304 305 305 307 309 310 311 311 309 308 307 308 308 309 308 307 308 307 306 307 307 308 308 297 304 306 307 308 304 302
298 292 289 289 288 286 292 290 292 290 290 288 288 288 289 292 298 295 291 294 297 299 300 303 303 302 303 304 303 305 307 309 308 308 309 308 306 306 307 307 307 308 309 309 308 309 309 309 301 306 306 304 303 302
287 287 289 285 291 288 287 287 289 288 286 289 287 289 290 294 292 292 292 296 298 298 299 302 302 302 301 302 303 304 310 306 306 306 308 308 307 307 306 306 306 308 308 306 306 306 307 310 308 305 303 303 301 301
283 289 286 288 288 287 287 285 286 287 288 288 288 293 295 293 290 288 294 297 299 301 300 299 299 300 302 304 304 304 306 309 309 307 307 308 307 306 304 303 303 304 308 309 307 307 307 307 305 303 301 299 291 297
283 287 292 296 293 292 291 293 293 291 287 287 290 290 290 285 287 293 300 302 302 303 305 304 304 302 303 305 308 308 310 310 310 309 309 308 308 309 308 305 304 309 313 313 309 309 307 306 303 302 302 301 301 300
289 291 287 291 292 293 289 290 289 288 290 297 295 289 288 289 290 297 299 303 305 305 306 307 309 306 305 307 307 307 307 308 308 308 307 307 308 308 309 310 312 294 311 310 308 309 308 305 304 302 302 300 302 304
291 295 294 289 291 291 291 290 290 292 295 296 293 291 291 295 297 297 301 305 306 305 304 304 306 308 306 306 308 307 306 304 302 301 301 302 303 306 310 311 311 311 310 309 288 296 306 306 304 304 302 300 303 301
291 296 292 290 288 286 290 293 292 295 298 298 297 296 294 295 299 302 303 303 303 304 304 305 306 305 304 303 303 304 305 307 306 304 302 303 304 308 310 310 312 308 308 308 306 304 290 301 296 303 302 301 300 299
298 296 290 290 288 291 293 296 296 296 296 295 297 294 293 297 300 303 303 305 305 304 304 303 303 305 304 303 304 303 303 308 309 309 308 309 310 310 312 312 313 310 308 306 305 304 303 303 302 300 300 300 299 297
294 292 290 288 289 294 296 295 295 293 292 292 292 296 299 297 293 298 303 305 305 303 294 303 305 305 307 308 308 308 294 307 309 310 310 311 312 312 314 313 314 310 307 306 305 303 304 303 301 300 300 299 300 300
293 294 294 292 292 291 295 294 292 291 293 291 289 291 293 292 289 296 305 306 304 304 304 305 306 307 308 308 308 307 297 310 300 288 289 288 287 296 311 314 313 310 307 305 304 303 303 302 301 301 301 300 299 301

GFSWCAN_sfc_thetae_240.txt.gz
Theta_e
302 301 301 301 301 301 302 303 304 304 307 308 310 312 313 314 315 314 316 325 316 309 311 313 315 311 312 313 308 316 311 312 309 303 302 303 302 304 304 305 303 302 302 299 300 296 293 309 306 297 306 311 310 309
303 303 303 302 301 301 301 302 302 303 304 307 308 310 312 314 315 314 312 320 323 312 310 317 317 319 317 316 312 317 316 313 312 307 308 307 304 306 305 299 309 301 305 303 305 301 314 312 312 312 312 310 309 309
303 304 304 303 303 303 302 301 301 303 303 304 306 308 310 312 313 314 314 318 316 312 309 309 308 315 320 319 320 310 315 319 317 322 312 309 305 307 301 302 304 307 310 303 304 306 306 309 312 312 312 311 311 310
302 302 303 303 303 303 303 302 301 302 303 303 305 307 309 311 312 313 313 317 315 311 304 308 319 315 320 321 319 319 317 320 321 318 310 307 303 311 304 305 304 306 307 305 304 307 308 309 311 311 311 311 310 311
302 302 302 302 302 302 303 303 302 301 302 303 304 306 308 310 311 312 314 316 318 311 304 307 316 318 319 317 316 318 319 317 312 309 307 304 308 308 309 307 303 308 308 304 303 311 309 310 311 311 309 309 310 309
303 303 302 302 302 302 302 302 303 301 301 302 304 305 308 309 309 311 304 313 317 317 307 301 314 315 317 316 314 314 315 313 311 308 307 309 317 309 302 302 310 313 313 316 311 312 313 312 311 312 310 311 310 308
303 303 303 302 302 302 302 302 303 303 301 301 303 304 306 308 307 305 303 307 309 314 307 301 301 308 315 314 313 312 317 312 310 309 308 308 309 309 304 301 308 312 311 312 313 312 309 310 308 312 311 311 310 310
302 302 303 303 302 302 302 302 303 303 301 300 301 303 305 306 306 304 310 309 310 308 309 299 301 306 314 307 307 313 309 310 310 308 309 307 308 308 302 309 310 311 311 311 311 313 312 312 312 310 311 309 307 305
301 302 303 303 301 302 302 302 303 303 301 300 301 302 305 304 304 308 309 309 308 304 296 299 298 297 311 308 309 310 310 304 310 305 306 307 305 302 306 309 308 309 310 310 311 311 311 309 309 310 308 307 304 303
301 302 302 302 301 302 302 302 303 302 301 300 301 301 297 303 310 310 307 300 299 299 298 294 304 300 307 306 305 306 307 303 300 304 308 305 303 311 313 313 312 311 310 311 309 308 308 309 309 308 306 305 305 305
301 301 302 301 301 302 302 302 303 301 300 299 298 297 308 310 308 305 297 293 293 290 296 299 301 299 309 302 302 306 301 303 297 301 302 301 302 308 312 312 314 315 314 313 314 313 313 312 310 307 305 305 305 305
301 302 302 301 301 302 302 303 303 300 300 299 298 307 306 302 297 291 288 291 289 291 301 300 301 304 306 310 303 302 299 301 295 306 301 298 305 312 311 312 313 315 315 312 312 311 312 310 309 306 305 305 306 306
301 302 302 301 301 301 302 303 303 302 301 302 301 298 296 295 288 285 285 287 290 299 304 303 301 305 306 306 303 301 296 297 305 299 298 302 310 311 313 314 313 314 314 313 311 312 311 308 308 307 306 307 307 307
301 302 302 301 301 302 302 303 302 301 297 293 292 285 288 285 289 292 293 295 301 305 305 305 304 301 302 298 301 296 300 301 295 295 296 303 310 310 314 313 313 312 313 311 311 310 308 307 306 307 307 308 308 306
302 302 301 300 301 302 302 302 302 301 295 289 291 285 288 294 297 299 299 303 305 306 307 304 302 302 299 297 299 299 295 294 297 297 302 308 313 314 313 314 313 312 313 312 311 308 307 307 306 306 308 309 308 308
301 300 299 301 302 302 302 301 300 299 295 290 288 288 294 293 293 296 300 301 307 307 309 302 296 295 294 297 295 294 294 293 298 304 308 313 314 316 315 315 314 313 312 311 310 309 308 307 307 308 309 309 309 308
300 297 301 301 302 302 301 298 296 292 291 290 288 295 295 296 295 296 298 302 310 305 298 293 292 292 299 296 295 299 297 301 306 308 309 318 317 315 315 313 312 311 311 312 311 311 309 309 309 308 307 309 309 309
297 300 302 301 301 299 296 296 291 291 286 288 289 292 295 296 296 298 300 306 303 302 300 293 291 295 295 294 296 302 305 309 310 311 314 317 319 316 313 312 312 312 312 312 312 311 310 309 308 309 308 308 308 310
299 301 301 301 299 296 292 293 293 286 289 292 293 294 294 297 301 302 304 305 306 306 299 294 288 291 298 303 303 306 308 309 308 312 316 318 318 314 314 313 312 312 312 313 313 310 310 311 309 308 306 307 306 307
300 301 301 301 300 294 289 291 298 291 289 292 293 293 294 295 297 300 302 304 303 300 295 290 292 297 300 304 308 308 310 312 311 310 310 314 315 316 313 312 311 313 312 313 311 304 308 306 307 308 308 306 306 305
297 299 300 300 296 293 289 290 292 293 292 291 294 294 293 295 295 297 299 304 299 296 294 297 299 303 305 306 308 309 309 312 312 311 310 310 312 311 312 312 313 310 309 308 307 304 300 304 305 308 308 307 307 306
298 299 296 296 291 292 291 294 293 297 294 294 294 294 292 292 294 297 302 297 296 298 300 301 302 303 304 303 306 309 313 311 313 309 304 306 310 310 309 309 309 307 306 306 305 305 305 307 308 307 308 307 305 305
298 297 295 293 288 289 287 296 291 292 287 291 293 290 290 292 295 302 295 298 299 303 303 303 304 307 305 307 308 309 310 310 308 310 310 310 311 311 310 310 309 306 305 306 307 306 307 300 303 306 307 307 305 302
299 292 289 289 289 286 292 290 293 291 291 289 288 286 290 293 298 295 292 296 300 303 302 302 305 303 304 305 305 307 309 311 308 310 310 309 308 309 309 308 308 308 308 307 307 307 307 308 301 306 306 304 304 303
287 287 288 284 291 287 287 287 287 288 286 288 286 288 290 296 291 291 291 296 300 299 300 300 303 302 301 302 304 307 311 309 308 306 309 309 308 307 306 307 307 306 307 305 305 306 306 308 307 307 306 305 303 301
282 288 286 288 288 287 287 285 286 287 288 287 288 293 293 290 290 289 294 299 301 300 300 300 300 300 302 304 304 305 306 310 310 307 309 309 308 306 305 303 303 304 308 308 307 307 307 307 306 305 302 298 291 299
282 286 291 295 292 292 290 291 291 289 287 287 290 291 290 286 289 294 301 304 303 304 304 302 303 302 304 305 308 309 310 310 308 309 310 310 309 309 307 305 305 309 312 310 309 307 306 306 305 304 303 302 301 301
287 290 288 291 290 293 289 290 290 289 290 294 294 289 287 289 289 297 300 304 307 306 305 303 305 306 306 307 309 309 309 309 310 311 308 308 308 308 312 310 309 296 306 304 308 309 307 307 306 305 304 302 302 303
290 295 294 290 291 291 290 290 291 292 296 296 293 290 292 295 299 300 303 305 307 306 305 304 305 307 308 308 309 309 309 306 304 301 301 301 302 305 311 310 309 310 310 307 289 297 306 306 306 305 304 303 303 304
291 297 292 291 289 287 290 293 292 297 298 298 297 297 296 298 300 306 306 306 305 305 304 306 305 306 305 305 304 305 305 305 305 303 302 302 304 309 310 310 309 310 309 308 306 303 290 301 297 304 302 302 301 301
295 295 291 291 289 293 294 296 298 298 296 296 298 296 295 298 302 306 307 308 306 304 305 304 305 305 305 304 305 302 302 306 308 308 308 309 310 311 312 312 311 310 308 305 304 303 302 302 302 301 301 301 300 298
296 292 292 289 291 296 297 296 294 293 294 294 294 297 297 294 293 300 304 306 306 304 296 304 307 307 307 307 307 307 299 309 310 310 310 311 312 312 313 313 312 309 305 305 305 304 302 301 301 301 301 300 300 299
294 295 295 293 293 292 295 295 293 292 292 291 292 294 296 293 287 297 304 304 307 306 305 306 307 308 308 309 308 308 304 308 299 289 290 288 287 295 310 314 312 308 306 305 304 303 303 302 301 301 301 300 300 300

GFSWCAN_sfc_thetae_246.txt.gz
Theta_e
302 301 300 300 301 301 300 301 302 302 303 304 305 306 308 310 312 310 305 308 305 305 303 307 307 300 301 300 297 301 301 301 298 293 293 293 292 295 294 297 296 293 289 288 289 285 286 303 301 293 296 298 301 301
303 304 302 303 303 303 302 301 301 301 302 303 304 306 307 310 311 312 302 310 312 304 304 309 310 311 308 306 301 300 301 302 303 296 296 296 294 294 292 289 298 293 297 293 293 293 299 302 300 301 302 300 301 299
303 303 303 304 304 304 304 304 302 301 301 302 303 304 306 307 311 310 308 306 306 301 303 303 303 308 309 308 307 299 302 307 305 310 303 299 293 296 291 293 294 297 300 294 295 297 301 303 304 304 303 302 302 301
302 302 302 302 303 303 303 303 303 302 301 301 302 304 305 306 309 309 307 307 308 306 297 299 311 306 312 310 309 308 306 306 305 308 305 299 295 298 294 296 295 298 297 297 295 298 300 302 305 305 304 304 302 301
302 302 302 302 302 302 302 302 302 302 302 300 301 302 304 304 307 304 303 305 310 306 298 301 306 308 308 307 308 308 305 302 300 297 298 297 299 297 296 296 294 299 297 294 293 299 299 299 303 305 303 302 301 300
302 302 302 303 302 302 302 302 302 302 302 301 301 301 302 303 305 303 297 307 309 310 302 295 302 303 306 307 306 306 306 304 301 299 296 298 302 298 293 291 298 301 302 301 299 303 303 304 305 305 303 302 302 301
301 302 302 303 303 303 302 302 302 302 302 303 301 301 301 303 297 298 297 304 306 306 302 296 294 302 305 304 304 304 304 303 302 298 297 297 298 299 294 291 300 304 304 304 305 305 301 303 302 305 305 304 304 301
300 301 301 302 302 303 302 301 302 302 302 303 302 302 303 302 300 292 296 303 304 303 303 295 293 295 302 298 299 304 302 302 299 299 298 297 297 296 292 297 303 306 306 305 305 305 304 305 304 305 304 302 299 298
300 300 301 301 302 303 303 301 302 302 303 304 302 302 295 293 290 295 309 309 303 300 294 292 291 289 302 299 301 301 304 297 300 297 298 298 295 292 296 299 303 306 305 304 305 305 305 304 304 304 302 299 297 297
300 300 301 301 302 303 302 301 302 302 303 302 295 294 288 294 308 309 304 299 299 299 298 292 293 290 296 297 297 298 301 298 292 296 300 297 296 301 302 303 304 306 306 304 301 300 301 302 303 303 299 298 298 299
301 300 301 301 302 302 302 301 302 302 301 291 289 290 300 309 298 294 292 292 292 290 294 295 292 290 300 293 298 302 297 299 293 295 295 290 290 300 305 305 307 308 306 305 305 305 306 305 304 300 299 301 301 301
300 300 301 301 302 302 301 302 302 297 292 295 295 296 297 296 293 290 287 289 290 286 292 289 290 294 295 301 297 300 296 299 293 299 293 288 297 301 304 306 307 306 306 305 305 306 305 305 302 301 301 300 299 300
300 300 300 301 302 302 302 302 302 301 300 297 293 292 290 287 284 283 281 285 286 291 291 293 292 294 297 300 297 297 293 293 301 293 290 294 298 302 304 306 306 305 307 307 305 306 304 303 303 301 300 301 301 302
299 300 300 301 302 302 302 302 302 300 291 287 287 279 284 283 285 284 286 286 289 291 292 293 293 293 294 292 294 292 296 296 292 288 289 295 299 302 305 307 307 305 306 307 305 303 302 302 302 303 303 302 302 301
299 300 300 301 302 302 302 302 302 296 290 285 287 281 280 287 287 289 290 289 291 292 292 293 293 294 291 290 293 292 292 290 290 289 293 298 301 302 304 305 306 306 306 305 303 302 302 303 302 301 303 302 302 302
300 299 298 301 302 302 302 301 299 296 292 288 286 283 284 284 285 287 287 287 293 297 295 292 291 292 291 291 291 291 290 287 292 296 299 301 302 302 304 305 307 307 306 305 303 302 303 302 302 302 302 302 303 304
299 296 301 302 302 302 301 295 294 289 288 286 283 286 285 284 284 286 287 290 297 292 291 289 286 286 294 290 290 293 291 294 295 298 301 303 304 304 305 306 306 305 303 303 303 302 302 304 303 302 300 302 302 302
296 298 300 301 299 297 296 295 290 287 283 285 282 283 286 287 286 287 287 293 292 293 292 291 293 287 286 288 291 292 294 294 295 297 300 302 305 307 305 303 304 304 303 303 303 303 303 302 301 301 301 301 301 299
298 298 301 301 297 294 289 290 290 283 284 286 286 286 285 286 288 289 288 291 293 294 292 292 289 287 287 292 294 294 295 295 295 298 301 305 308 305 304 305 305 304 304 303 303 303 303 302 301 302 302 302 299 298
300 301 301 301 299 291 287 288 292 284 282 285 287 286 286 286 288 288 288 288 291 289 287 289 288 290 291 294 296 296 296 299 299 298 301 307 307 306 305 305 305 305 304 304 304 301 302 299 300 302 302 300 298 296
298 298 300 298 295 291 288 288 288 287 287 284 287 286 285 287 286 287 286 289 288 287 286 289 291 294 297 299 298 299 300 301 300 302 303 305 308 305 305 306 307 306 305 304 302 300 300 299 300 301 301 298 297 295
296 299 295 296 290 290 288 289 286 288 285 286 287 288 285 285 286 286 289 287 287 289 290 291 294 294 295 297 298 302 303 304 304 304 303 305 305 303 304 305 305 304 304 304 304 301 298 301 303 302 300 297 295 295
298 296 293 292 287 286 284 288 284 285 282 284 288 286 286 285 287 292 286 287 288 291 293 294 295 294 296 299 301 303 304 304 304 305 307 309 309 309 307 305 305 304 302 302 302 301 302 298 299 300 299 297 295 294
298 291 287 285 284 278 287 284 286 285 286 283 282 282 285 286 288 285 283 286 291 292 292 294 295 295 296 298 298 299 302 306 306 306 307 308 307 307 308 307 305 304 302 302 302 302 303 302 298 300 299 297 296 294
281 284 284 281 286 283 282 284 284 284 283 285 283 284 284 287 283 284 284 287 290 291 293 295 295 295 294 295 297 298 303 306 305 303 305 309 308 307 307 307 300 303 305 302 301 302 302 302 302 300 300 299 296 293
279 284 278 284 284 284 284 283 284 284 285 284 286 289 287 285 285 284 287 289 291 293 295 296 294 293 294 297 298 299 303 308 306 303 306 308 308 307 304 298 299 299 304 305 303 303 302 301 300 299 298 295 290 294
280 282 285 289 287 289 286 288 289 287 286 285 287 287 286 283 284 288 293 296 295 296 298 298 296 296 297 300 302 305 307 308 307 307 308 307 308 309 303 300 300 302 305 306 305 303 301 299 298 297 296 295 295 295
284 285 283 286 287 288 286 287 286 287 287 290 289 285 286 286 286 292 297 298 298 298 299 299 301 303 302 304 305 306 306 307 307 307 305 304 304 303 302 301 298 292 301 306 305 303 302 300 298 297 296 295 295 296
285 289 289 287 289 289 288 286 286 289 293 292 288 286 289 293 294 296 300 302 303 302 300 300 303 305 305 306 306 306 306 306 303 299 298 297 299 301 304 304 303 302 300 297 289 298 302 301 299 298 298 296 296 297
286 291 287 286 287 286 287 291 290 292 293 294 293 293 295 296 299 300 301 302 301 299 301 301 302 303 302 302 302 303 306 306 305 302 299 298 300 304 304 303 302 301 301 300 298 295 290 297 294 298 297 296 296 298
291 291 287 285 285 288 292 294 295 293 293 292 293 290 291 294 297 299 300 302 303 303 302 302 302 303 302 302 301 301 300 305 306 305 306 306 306 305 304 303 303 302 301 300 299 298 297 296 296 295 296 298 295 295
288 288 286 286 286 289 292 291 291 290 286 285 286 289 289 289 289 294 299 302 300 300 296 301 301 302 305 306 305 303 295 304 306 308 307 307 305 306 305 305 304 302 300 299 298 298 297 296 296 295 295 296 295 294
290 289 289 287 286 287 290 290 288 285 289 289 288 286 289 289 286 294 301 301 299 299 300 302 304 305 306 305 303 301 297 298 292 288 288 288 292 298 303 302 302 301 300 299 298 298 297 297 296 298 298 297 294 294